Location: Staunton
(38.1490°N, 79.0720°W)
Time: 05:27:36
(UTC-05:00)

ISS - Pass Details

Date: 21 January 2019
Orbit: 404 x 407 km, 51.6° (Epoch: 16 January)

Event Time Altitude Azimuth Distance (km) Brightness Sun altitude
Rises 18:49:35 0° 218° (SW) 2,308 0.8 -16.2°
Reaches altitude 10° 18:51:41 10° 212° (SSW) 1,453 -0.4 -16.6°
Maximum altitude 18:54:51 49° 137° (SE) 528 -3.5 -17.3°
Enters shadow 18:55:10 47° 114° (ESE) 545 -3.6 -17.3°
